Regional Weather Roundup
Issued by NWS Sioux Falls, SD

Home | Current Version | Previous Version | Text Only | Print | Product List | Glossary On
Versions: 1 2 3 4 5 6 7 8 9 10 11 12 13 14 15 16 17 18 19 20 21 22 23 24 25 26 27 28 29 30 31 32 33 34 35 36 37 38 39 40 41 42 43 44 45 46 47 48 49 50
674
ASUS43 KFSD 280910
RWRFSD

WEATHER ROUNDUP FOR SE SOUTH DAKOTA/SW MINNESOTA/NW IOWA
NATIONAL WEATHER SERVICE SIOUX FALLS SD
400 AM CDT SUN AUG 28 2016

NOTE: "FAIR" INDICATES FEW OR NO CLOUDS BELOW 12,000 FEET WITH NO
SIGNIFICANT WEATHER AND OR OBSTRUCTIONS TO VISIBILITY.


SDZ038>040-050-052>070-281000-
SOUTHEAST SOUTH DAKOTA

CITY           SKY/WX    TMP DP  RH WIND       PRES   REMARKS
BROOKINGS      CLEAR     64  62  93 SE10      30.03R
CHAMBERLAIN    CLEAR     71  66  84 S7        29.95S
HURON          CLEAR     67  64  90 S12       29.94S
MADISON        FAIR      64  64 100 S9        30.02S
MITCHELL       CLEAR     67  64  90 S9        29.97S
SIOUX FALLS    CLEAR     68  65  90 SE7       30.02S
WINNER         FAIR      72  65  78 S14       29.96S
YANKTON        CLEAR     68  63  83 S12       29.99F
$$

MNZ071-072-080-081-089-090-097-098-281000-
SOUTHWEST MINNESOTA

CITY           SKY/WX    TMP DP  RH WIND       PRES   REMARKS
FAIRMONT       FOG       58  58 100 S5        30.09S VSB 3/4
JACKSON          N/A     64  61  88 SE7       30.10R
LUVERNE        CLEAR     61  59  94 SE3       30.05S
MARSHALL       CLOUDY    64  62  93 SE10      30.05F
MONTEVIDEO     TSTM      63  63 100 S8        30.06F
PIPESTONE      CLEAR     64  63  94 SE7       30.06S
REDWOOD FALLS  PTCLDY    62  59  90 SE5       30.06R
TRACY          CLEAR     62  61  96 S7        30.06F FOG
WINDOM         CLEAR     64  63  94 SE3       30.08R
WORTHINGTON    CLEAR     62  61  96 S5        30.08R
$$

IAZ001>003-012>014-020>022-031-032-NEZ013-014-SDZ071-281000-
NORTHWEST IOWA

CITY           SKY/WX    TMP DP  RH WIND       PRES   REMARKS
CHEROKEE       CLEAR     61  61 100 S3        30.07F FOG
DENISON        CLEAR     64  64 100 SE5       30.06F FOG
ESTHERVILLE    FOG       56  56 100 SE6       30.09S VSB 1/4
LE MARS        CLEAR     64  63  94 S3        30.05F
ORANGE CITY    CLEAR     64  63  94 SE6       30.05F
SHELDON        CLEAR     63  63 100 SE3       30.05S
SIOUX CITY     CLEAR     63  61  93 SE8       30.04F
SPENCER        CLEAR     62  60  93 SE5       30.08S FOG
STORM LAKE     CLEAR     63  63 100 SE8       30.09S FOG
$$

ABBREVIATIONS USED IN REMARKS
   TC - TEMPERATURE IN CELSIUS
  WCI - WIND CHILL INDEX
   HX - HEAT INDEX
  VSB - VISIBILITY





USA.gov is the U.S. government's official web portal to all federal, state and local government web resources and services.